User: anonymous   Login
Location: Unspecified
(0.0000°N, 0.0000°E)
Time: 09:11:15
(UTC+00:00)
Language:

Aussat K2 - Orbit

View from above orbital plane
View from above orbital plane
View from above satellite
View from above satellite

Ground track
Ground track

The orbit data is extracted from the following two-line orbital elements,

1 16275U 85109C   17349.35671153 -.00000235  00000-0  00000+0 0  9999
2 16275  15.2089   6.6262 0008923 261.6401 100.0866  0.99956186107037
Epoch (UTC): 15 December 2017 08:33:39
Eccentricity: 0.0008923
inclination: 15.2089°
perigee height: 35837 km
apogee height: 35912 km
right ascension of ascending node: 6.6262°
argument of perigee: 261.6401°
revolutions per day: 0.99956186
mean anomaly at epoch: 100.0866°
orbit number at epoch: 10703

The dashed part of the orbit path shows where the satellite is in the earth's shadow,  

DLR